CYEG

Edmonton International Airport

Airport
ICAO code
CYEG
IATA Code
YEG
Summary
ICAO Region
NAM
ICAO Territory
Location

Edmonton, Alberta

Serving
Edmonton
Elevation
2373 ft
Coordinates
53° 18' 29" N , 113° 35' 2" W
KCC
Metar
CYEG 221900Z 13003KT 090V240 20SM FEW050 FEW250 22/10 A2989 RMK CU1CI1 CU TR CI TR SLP128 DENSITY ALT 3800FT

Description

International airport serving Edmonton, Alberta.

Climatology

Humid Continental climate (Köppen climate classification Dfb) - Variable weather patterns and a large seasonal temperature variance. Summers are often warm and humid with frequent thunderstorms and winters can be very cold with frequent snowfall and persistent snow cover.

Runways

Designator Length Width Surface Rops
12/30 3109 61 ASP Yes/Yes
2/20 3353 61 ASP Yes/Yes

Airport map

Aerial View

Airport accidents

SKYbrary Partners:

Safety knowledge contributed by: